Jackson, MI

10:57 PM EST on February 18, 2018 (GMT -0500)
Jackson County-Reynolds

Weather History for KJXN - April, 2013

Change the Weather History Date:

Tuesday, April 2, 2013

  Actual Average Record
Temperature  
Mean Temperature 31 °F 43 °F  
Max Temperature 42 °F 53 °F 80 °F (1963)
Min Temperature 19 °F 32 °F 19 °F (2013)
Degree Days  
Heating Degree Days 34 22  
Month to date heating degree days 68 45  
Since 1 July heating degree days 5772 5869  
Cooling Degree Days 0 0  
Month to date cooling degree days 0 0  
Year to date cooling degree days 0 0  
Moisture  
Dew Point 12 °F    
Average Humidity 56    
Maximum Humidity 84    
Minimum Humidity 27    
Precipitation  
Precipitation 0.00 in 0.08 in 1.06 in (1964)
Month to date precipitation 0.01 0.16  
Year to date precipitation 4.98 4.84  
Sea Level Pressure  
Sea Level Pressure 30.19 in    
Wind  
Wind Speed 9 mph (WNW)    
Max Wind Speed 21 mph    
Max Gust Speed 31 mph    
Visibility 10 miles    
Events      
T = Trace of Precipitation, MM = Missing Value Source: NWS Daily Summary

Daily Weather History Graph

Daily Weather History Graph

Search for Another Location

Airport or City:

Trip Planner

Search our weather history database for the weather conditions in past years. The results will help you decide how hot, cold, wet, or windy it might be!

Date:

Astronomy

Apr. 02, 2013 Rise Set
Actual Time 7:18 AM EDT 8:05 PM EDT
Civil Twilight 6:49 AM EDT 8:33 PM EDT
Nautical Twilight 6:16 AM EDT 9:07 PM EDT
Astronomical Twilight 5:41 AM EDT 9:42 PM EDT
Moon 2:13 AM EDT (4/2) 12:03 PM EDT (4/2)
Length of Visible Light 13h 43m
Length of Day
12h 46m
Waning Gibbous, 56% of the Moon is Illuminated
Apr 2
Waning Gibbous
Apr 3
Last Quarter
Apr 10
New
Apr 18
First Quarter
Apr 25
Full

Hourly Weather History & Observations

Time (EDT) Temp. Windchill Dew Point Humidity Pressure Visibility Wind Dir Wind Speed Gust Speed Precip Events Conditions
12:56 AM 21.9 °F 15.7 °F 12.0 °F 66% 30.13 in 10.0 mi WSW 4.6 mph - N/A   Clear
1:56 AM 21.9 °F 15.7 °F 12.0 °F 66% 30.13 in 10.0 mi WSW 4.6 mph - N/A   Clear
2:56 AM 21.9 °F 14.5 °F 12.9 °F 68% 30.13 in 10.0 mi WSW 5.8 mph - N/A   Clear
3:56 AM 21.9 °F 13.4 °F 14.0 °F 72% 30.13 in 10.0 mi WSW 6.9 mph - N/A   Scattered Clouds
4:56 AM 23.0 °F 14.7 °F 16.0 °F 74% 30.14 in 10.0 mi West 6.9 mph - N/A   Mostly Cloudy
5:13 AM 23.0 °F 15.8 °F 15.8 °F 74% 30.10 in 10.0 mi West 5.8 mph - N/A   Scattered Clouds
5:56 AM 21.0 °F 14.6 °F 16.0 °F 81% 30.15 in 10.0 mi WNW 4.6 mph - N/A   Clear
6:56 AM 19.9 °F 14.9 °F 15.1 °F 81% 30.17 in 10.0 mi WSW 3.5 mph - N/A   Clear
7:56 AM 21.0 °F 13.4 °F 17.1 °F 85% 30.19 in 10.0 mi WSW 5.8 mph - N/A   Clear
8:56 AM 26.1 °F 21.9 °F 18.0 °F 71% 30.20 in 10.0 mi WSW 3.5 mph - N/A   Clear
9:56 AM 30.0 °F 21.1 °F 14.0 °F 51% 30.20 in 10.0 mi West 10.4 mph - N/A   Clear
10:56 AM 32.0 °F 23.6 °F 12.0 °F 44% 30.21 in 10.0 mi WNW 10.4 mph 21.9 mph N/A   Mostly Cloudy
11:56 AM 34.0 °F 23.4 °F 10.9 °F 38% 30.21 in 10.0 mi WNW 17.3 mph 27.6 mph N/A   Overcast
12:56 PM 37.9 °F 30.0 °F 12.0 °F 35% 30.19 in 10.0 mi NW 12.7 mph 21.9 mph N/A   Mostly Cloudy
1:56 PM 37.0 °F 28.1 °F 10.0 °F 33% 30.18 in 10.0 mi WNW 15.0 mph 26.5 mph N/A   Mostly Cloudy
2:56 PM 41.0 °F 33.5 °F 10.0 °F 28% 30.16 in 10.0 mi NW 13.8 mph 23.0 mph N/A   Mostly Cloudy
3:56 PM 39.9 °F 31.8 °F 9.0 °F 28% 30.16 in 10.0 mi WNW 15.0 mph 24.2 mph N/A   Scattered Clouds
4:56 PM 39.9 °F 31.8 °F 9.0 °F 28% 30.16 in 10.0 mi WNW 15.0 mph 26.5 mph N/A   Scattered Clouds
5:56 PM 39.0 °F 29.6 °F 10.0 °F 30% 30.18 in 10.0 mi WNW 18.4 mph 21.9 mph N/A   Partly Cloudy
6:56 PM 36.0 °F 28.0 °F 10.9 °F 36% 30.21 in 10.0 mi NW 11.5 mph 20.7 mph N/A   Clear
7:56 PM 32.0 °F 24.2 °F 10.0 °F 40% 30.23 in 10.0 mi NW 9.2 mph 20.7 mph N/A   Clear
8:56 PM 30.0 °F 21.7 °F 10.0 °F 43% 30.24 in 10.0 mi WNW 9.2 mph - N/A   Clear
9:56 PM 28.0 °F 21.7 °F 9.0 °F 45% 30.27 in 10.0 mi WNW 5.8 mph - N/A   Clear
10:56 PM 26.1 °F 19.4 °F 10.0 °F 51% 30.28 in 10.0 mi NW 5.8 mph - N/A   Clear
11:56 PM 26.1 °F 21.9 °F 10.9 °F 53% 30.28 in 10.0 mi West 3.5 mph - N/A   Clear